Location: Bosmont
(49.7318°N, 3.8587°E)
Time: 22:59:52
(UTC+00:00)

S3M - Pass Details

Date: 08 February 2023
Orbit: 948 x 1005 km, 83.0° (Epoch: 01 April)

Event Time Altitude Azimuth Distance (km) Brightness Sun altitude
Rises 18:51:41 0° 195° (SSW) 3,720 7.2 -19.8°
Reaches altitude 10° 18:54:13 10° 197° (SSW) 2,773 6.6 -20.2°
Maximum altitude 19:00:35 71° 281° (WNW) 1,058 4.3 -21.3°
Drops below altitude 10° 19:06:58 10° 6° (N) 2,770 6.3 -22.3°
Sets 19:09:30 0° 9° (N) 3,716 7.0 -22.7°
